Weather History for Plattsmouth, NE

Change the Weather History Date:

Saturday, April 26, 2014

  Actual Average (KOFF) Record (KOFF)
Temperature  
Mean Temperature 67 °F -  
Max Temperature 81 °F 64 °F 84 °F (2001)
Min Temperature 53 °F 44 °F 29 °F (2008)
Cooling Degree Days 2    
Growing Degree Days 17 (Base 50)    
Moisture  
Dew Point 45 °F    
Average Humidity 45    
Maximum Humidity 64    
Minimum Humidity 25    
Precipitation  
Precipitation 0.00 in - - ()
Sea Level Pressure  
Sea Level Pressure 29.65 in    
Wind  
Wind Speed 13 mph (SE)    
Max Wind Speed 29 mph    
Max Gust Speed 41 mph    
Visibility 10 miles    
Events      
Averages and records for this station are not official NWS values.
T = Trace of Precipitation, MM = Missing Value Source: NWS Daily Summary

Daily Weather History Graph

Daily Weather History Graph

Search for Another Location

Airport:

Trip Planner

Search our weather history database for the weather conditions in past years. The results will help you decide how hot, cold, wet, or windy it might be!

Date:

Astronomy

Apr. 26, 2014 Rise Set
Actual Time 6:28 AM CDT 8:15 PM CDT
Civil Twilight 5:59 AM CDT 8:44 PM CDT
Nautical Twilight 5:23 AM CDT 9:20 PM CDT
Astronomical Twilight 4:45 AM CDT 9:58 PM CDT
Moon 4:54 AM CDT 5:43 PM CDT
Length of Visible Light 14h 45m
Length of Day
13h 46m
Waning Crescent, 8% of the Moon is Illuminated
Apr 26
Waning Crescent
Apr 29
New
May 6
First Quarter
May 14
Full
May 21
Last Quarter

Hourly Weather History & Observations

Time (CDT) Temp. Dew Point Humidity Pressure Visibility Wind Dir Wind Speed Gust Speed Precip Events Conditions
12:15 AM 61.9 °F 42.8 °F 50% 29.77 in 10.0 mi SSE 10.4 mph - N/A   Clear
12:35 AM 61.3 °F 43.0 °F 51% 29.77 in 10.0 mi SSE 10.4 mph - N/A   Clear
12:55 AM 60.8 °F 43.0 °F 52% 29.77 in 10.0 mi SSE 10.4 mph - N/A   Clear
1:15 AM 60.8 °F 42.8 °F 52% 29.76 in 10.0 mi SSE 10.4 mph - N/A   Clear
1:35 AM 60.4 °F 42.8 °F 52% 29.76 in 10.0 mi SSE 10.4 mph - N/A   Clear
1:55 AM 59.9 °F 42.4 °F 52% 29.75 in 10.0 mi SSE 11.5 mph - N/A   Clear
2:15 AM 59.2 °F 42.3 °F 53% 29.75 in 10.0 mi SSE 10.4 mph - N/A   Clear
2:35 AM 59.0 °F 42.3 °F 54% 29.74 in 10.0 mi SSE 10.4 mph - N/A   Clear
2:55 AM 58.8 °F 42.1 °F 54% 29.74 in 10.0 mi SSE 10.4 mph - N/A   Clear
3:15 AM 58.1 °F 42.1 °F 55% 29.74 in 10.0 mi SSE 11.5 mph - N/A   Clear
3:35 AM 57.2 °F 41.9 °F 57% 29.74 in 10.0 mi SSE 9.2 mph - N/A   Clear
3:55 AM 57.2 °F 42.1 °F 57% 29.74 in 10.0 mi SSE 10.4 mph - N/A   Clear
4:15 AM 56.7 °F 41.9 °F 58% 29.74 in 10.0 mi SSE 8.1 mph - N/A   Clear
4:35 AM 56.7 °F 41.9 °F 58% 29.73 in 10.0 mi SSE 10.4 mph - N/A   Clear
4:55 AM 57.2 °F 41.7 °F 56% 29.74 in 10.0 mi SSE 10.4 mph - N/A   Clear
5:15 AM 56.3 °F 41.5 °F 58% 29.74 in 10.0 mi SSE 8.1 mph - N/A   Clear
5:35 AM 55.4 °F 41.9 °F 60% 29.74 in 10.0 mi SE 6.9 mph - N/A   Clear
5:55 AM 53.8 °F 41.9 °F 64% 29.74 in 10.0 mi ESE 6.9 mph - N/A   Clear
6:15 AM 54.1 °F 41.9 °F 63% 29.74 in 10.0 mi ESE 5.8 mph - N/A   Clear
6:35 AM 54.5 °F 41.7 °F 62% 29.74 in 10.0 mi SE 5.8 mph - N/A   Clear
6:55 AM 54.7 °F 41.9 °F 62% 29.74 in 10.0 mi ESE 4.6 mph - N/A   Clear
7:15 AM 54.3 °F 42.3 °F 64% 29.74 in 10.0 mi ESE 6.9 mph - N/A   Clear
7:35 AM 54.9 °F 42.8 °F 64% 29.74 in 10.0 mi ESE 6.9 mph - N/A   Clear
7:55 AM 56.1 °F 43.3 °F 62% 29.73 in 10.0 mi ESE 6.9 mph - N/A   Clear
8:15 AM 57.4 °F 43.5 °F 60% 29.73 in 10.0 mi East 8.1 mph - N/A   Clear
8:35 AM 58.6 °F 43.5 °F 57% 29.73 in 10.0 mi East 11.5 mph - N/A   Clear
8:55 AM 60.1 °F 43.2 °F 54% 29.73 in 10.0 mi ESE 12.7 mph - N/A   Clear
9:15 AM 61.3 °F 43.9 °F 53% 29.72 in 10.0 mi ESE 11.5 mph - N/A   Clear
9:35 AM 64.0 °F 42.4 °F 45% 29.72 in 10.0 mi ESE 13.8 mph - N/A   Clear
9:55 AM 65.7 °F 42.4 °F 43% 29.71 in 10.0 mi ESE 13.8 mph 17.3 mph N/A   Clear
10:15 AM 68.2 °F 41.9 °F 38% 29.71 in 10.0 mi SE 11.5 mph - N/A   Clear
10:35 AM 69.3 °F 41.7 °F 37% 29.70 in 10.0 mi SE 10.4 mph 18.4 mph N/A   Clear
10:55 AM 70.7 °F 41.0 °F 34% 29.70 in 10.0 mi SE 15.0 mph 20.7 mph N/A   Clear
11:15 AM 71.4 °F 41.2 °F 33% 29.69 in 10.0 mi ESE 15.0 mph 21.9 mph N/A   Clear
11:35 AM 72.7 °F 41.0 °F 32% 29.69 in 10.0 mi SE 18.4 mph - N/A   Clear
11:55 AM 74.8 °F 41.4 °F 30% 29.68 in 10.0 mi SE 15.0 mph 23.0 mph N/A   Clear
12:15 PM 76.1 °F 42.1 °F 30% 29.66 in 10.0 mi SE 17.3 mph 25.3 mph N/A   Clear
12:35 PM 76.8 °F 41.5 °F 28% 29.65 in 10.0 mi SE 18.4 mph 26.5 mph N/A   Clear
12:55 PM 76.6 °F 42.3 °F 29% 29.64 in 10.0 mi South 21.9 mph 28.8 mph N/A   Clear
1:15 PM 78.1 °F 42.8 °F 28% 29.63 in 10.0 mi South 23.0 mph 28.8 mph N/A   Clear
1:35 PM 78.6 °F 43.5 °F 29% 29.62 in 10.0 mi SSE 23.0 mph 28.8 mph N/A   Clear
1:55 PM 79.7 °F 44.6 °F 29% 29.61 in 10.0 mi South 26.5 mph 33.4 mph N/A   Clear
2:15 PM 81.5 °F 46.8 °F 29% 29.59 in 10.0 mi SSE 19.6 mph 32.2 mph N/A   Scattered Clouds
2:35 PM 81.9 °F 45.7 °F 28% 29.59 in 10.0 mi SSE 25.3 mph 35.7 mph N/A   Scattered Clouds
2:55 PM 81.5 °F 43.3 °F 26% 29.58 in 10.0 mi SE 24.2 mph 38.0 mph N/A   Clear
3:15 PM 80.4 °F 42.1 °F 26% 29.58 in 10.0 mi SE 25.3 mph 38.0 mph N/A   Clear
3:35 PM 81.7 °F 43.0 °F 25% 29.57 in 7.0 mi SSE 23.0 mph 35.7 mph N/A   Clear
3:55 PM 81.7 °F 42.6 °F 25% 29.56 in 10.0 mi SSE 28.8 mph 39.1 mph N/A   Clear
4:15 PM 80.8 °F 45.5 °F 29% 29.57 in 10.0 mi SSE 25.3 mph 41.4 mph N/A   Clear
4:35 PM 81.5 °F 44.8 °F 27% 29.56 in 10.0 mi SSE 26.5 mph 41.4 mph N/A   Clear
4:55 PM 80.2 °F 44.8 °F 29% 29.55 in 10.0 mi SSE 24.2 mph 40.3 mph N/A   Clear
5:15 PM 80.8 °F 45.5 °F 29% 29.54 in 10.0 mi SSE 27.6 mph 36.8 mph N/A   Clear
5:35 PM 79.5 °F 45.0 °F 29% 29.54 in 10.0 mi SE 24.2 mph 38.0 mph N/A   Clear
5:55 PM 77.7 °F 48.4 °F 36% 29.54 in 4.0 mi SE 26.5 mph 35.7 mph N/A   Haze
6:15 PM 77.0 °F 51.3 °F 40% 29.54 in 10.0 mi SSE 23.0 mph 32.2 mph N/A   Scattered Clouds
6:35 PM 76.3 °F 53.6 °F 45% 29.54 in 10.0 mi SSE 19.6 mph 28.8 mph N/A   Scattered Clouds
6:55 PM 76.1 °F 53.8 °F 46% 29.54 in 10.0 mi SSE 21.9 mph 33.4 mph N/A   Clear
7:15 PM 75.7 °F 52.5 °F 44% 29.54 in 10.0 mi SE 19.6 mph 29.9 mph N/A   Scattered Clouds
7:35 PM 75.6 °F 49.6 °F 40% 29.53 in 10.0 mi SSE 19.6 mph 33.4 mph N/A   Clear
7:55 PM 74.3 °F 46.6 °F 37% 29.54 in 10.0 mi SE 13.8 mph 21.9 mph N/A   Clear
8:15 PM 72.9 °F 46.4 °F 39% 29.53 in 10.0 mi SE 17.3 mph 24.2 mph N/A   Clear
8:35 PM 72.1 °F 47.3 °F 41% 29.53 in 10.0 mi SE 19.6 mph 25.3 mph N/A   Clear
9:15 PM 69.6 °F 50.0 °F 50% 29.54 in 10.0 mi ESE 19.6 mph 24.2 mph N/A   Clear
9:35 PM 68.2 °F 50.0 °F 52% 29.55 in 10.0 mi ESE 16.1 mph 26.5 mph N/A   Clear
9:55 PM 67.3 °F 50.0 °F 54% 29.55 in 10.0 mi ESE 15.0 mph 25.3 mph N/A   Clear
10:15 PM 67.1 °F 49.6 °F 53% 29.54 in 10.0 mi ESE 17.3 mph 27.6 mph N/A   Clear
10:35 PM 66.6 °F 49.6 °F 54% 29.54 in 10.0 mi ESE 16.1 mph 25.3 mph N/A   Clear
10:55 PM 66.2 °F 49.5 °F 55% 29.54 in 10.0 mi ESE 16.1 mph 25.3 mph N/A   Clear
11:15 PM 66.2 °F 49.5 °F 55% 29.53 in 10.0 mi ESE 17.3 mph 24.2 mph N/A   Clear
11:35 PM 66.6 °F 49.1 °F 53% 29.53 in 10.0 mi ESE 18.4 mph 27.6 mph N/A   Clear
11:55 PM 66.9 °F 49.1 °F 53% 29.52 in 10.0 mi ESE 17.3 mph 26.5 mph N/A   Clear